Weather reports worldwide

Advertisment
Hoogeveen aws, Netherlands (6279): temperature & dewpoint: 10.10.2019 05:00:00 - 16.10.2019 05:00:00 (CEST)Hoogeveen aws, Netherlands (6279): temperature 5cm: 10.10.2019 05:00:00 - 16.10.2019 05:00:00 (CEST)Hoogeveen aws, Netherlands (6279): wind speed & gusts: 10.10.2019 05:00:00 - 16.10.2019 05:00:00 (CEST)Hoogeveen aws, Netherlands (6279): wind direction: 10.10.2019 05:00:00 - 16.10.2019 05:00:00 (CEST)Hoogeveen aws, Netherlands (6279): reduced air pressure: 10.10.2019 05:00:00 - 16.10.2019 05:00:00 (CEST)Hoogeveen aws, Netherlands (6279): visibility: 10.10.2019 05:00:00 - 16.10.2019 05:00:00 (CEST)Hoogeveen aws, Netherlands (6279): precipitation: 10.10.2019 05:00:00 - 16.10.2019 05:00:00 (CEST)
Date & Time tt [°C] td [°C] tt 5cm [°C] ff [km/h] ff [kn] fx [km/h] fx [kn] dd ppp [hPa] vv [km] rr [mm]
16.10.2019 05:00:00 12,5 12,2 12,3 11 6 22 12 SW 1007,7 5 0,3
16.10.2019 04:00:00 12,8 12,6 12,8 11 6 22 12 SW 1007,8 5 0,1
16.10.2019 03:00:00 13,0 12,8 12,9 11 6 18 10 SW 1007,6 4,3 0,0
16.10.2019 02:00:00 13,0 12,8 12,9 11 6 22 12 WSW 1007,5 5 0,2
16.10.2019 01:00:00 13,4 13,2 13,3 11 6 14 8 WSW 1007,2 3,6 0,3
16.10.2019 00:00:00 13,5 13,4 13,4 11 6 18 10 SSW 1007,4 3,8 0,9
15.10.2019 23:00:00 13,4 13,3 13,3 7 4 11 6 SSW 1007,5 4,5 0,8
15.10.2019 22:00:00 13,6 13,4 13,4 7 4 11 6 SSW 1007,3 6 0,7
15.10.2019 21:00:00 14,1 13,8 13,9 7 4 14 8 SW 1006,8 5 1,1
15.10.2019 20:00:00 14,1 13,7 13,7 7 4 11 6 S 1006,5 8 0,2
15.10.2019 19:00:00 14,4 13,7 13,7 7 4 11 6 SSE 1006,4 13 0,0
15.10.2019 18:00:00 15,3 13,8 14,9 7 4 14 8 W 1005,5 20 0,1
15.10.2019 17:00:00 16,5 13,5 16,0 7 4 22 12 SSW 1005,6 26 0,0
15.10.2019 16:00:00 17,4 13,5 18,0 18 10 25 14 SSW 1005,9 32 0,0
15.10.2019 15:00:00 16,4 13,2 16,5 14 8 25 14 SW 1005,9 30 0,0
15.10.2019 14:00:00 16,6 13,5 16,7 18 10 25 14 SW 1006,1 37 0,0
15.10.2019 13:00:00 17,1 14,3 - 11 6 22 12 SW 1005,8 25 0,0
15.10.2019 12:00:00 16,5 14,2 16,2 14 8 22 12 SSW 1006,0 24 0,0
15.10.2019 11:00:00 15,0 13,7 14,5 14 8 18 10 SSW 1006,1 20 0,0
15.10.2019 10:00:00 14,5 13,4 13,8 7 4 11 6 SSW 1005,2 18 0,0
15.10.2019 09:00:00 13,4 12,6 12,1 4 2 11 6 SW 1004,9 15 0,0
15.10.2019 08:00:00 13,1 12,2 11,4 7 4 14 8 SW 1004,5 17 0,0
15.10.2019 07:00:00 13,0 12,8 9,7 7 4 11 6 S 1004,6 12 0,0
15.10.2019 06:00:00 13,5 12,3 11,5 7 4 14 8 S 1004,8 18 0,0
15.10.2019 05:00:00 14,7 13,0 13,1 11 6 18 10 S 1004,5 22 0,0
15.10.2019 04:00:00 15,0 13,4 13,6 11 6 18 10 S 1004,7 20 0,0
15.10.2019 03:00:00 13,1 12,7 12,0 11 6 14 8 SE 1004,9 8 0,0
15.10.2019 02:00:00 13,4 13,0 11,7 7 4 14 8 ESE 1005,0 8 0,0
15.10.2019 01:00:00 13,0 12,9 11,6 7 4 11 6 ESE 1005,9 5 0,0
15.10.2019 00:00:00 13,4 13,2 11,9 4 2 11 6 ESE 1006,6 6 0,0
14.10.2019 23:00:00 14,7 13,9 14,1 11 6 25 14 ESE 1006,4 13 0,0
14.10.2019 22:00:00 15,0 13,8 14,3 11 6 22 12 ESE 1007,2 16 0,0
14.10.2019 21:00:00 15,3 13,9 14,4 14 8 22 12 E 1007,8 18 0,0
14.10.2019 20:00:00 15,1 13,7 14,5 18 10 25 14 E 1008,1 20 0,0
14.10.2019 19:00:00 15,0 13,5 14,4 14 8 22 12 E 1008,2 19 0,0
14.10.2019 18:00:00 15,6 13,4 15,1 14 8 22 12 E 1009,2 24 0,0
14.10.2019 17:00:00 15,6 13,9 15,4 14 8 22 12 ENE 1009,7 23 0,0
14.10.2019 16:00:00 15,5 13,9 15,5 14 8 22 12 ENE 1010,5 22 0,0
14.10.2019 15:00:00 14,8 12,7 14,5 18 10 25 14 E 1010,8 12 0,4
14.10.2019 14:00:00 15,2 13,0 15,6 11 6 14 8 NE 1012,2 21 0,0
14.10.2019 13:00:00 14,6 12,3 14,9 11 6 18 10 E 1013,3 23 0,0
14.10.2019 12:00:00 14,4 12,6 14,8 7 4 14 8 E 1013,7 21 0,0
14.10.2019 11:00:00 13,4 12,5 13,5 7 4 7 4 SSE 1014,6 19 0,0
14.10.2019 10:00:00 12,9 12,2 12,8 4 2 11 6 ESE 1013,8 15 0,0
14.10.2019 09:00:00 12,3 11,9 12,1 4 2 11 6 SSE 1013,9 15 0,0
14.10.2019 08:00:00 11,9 11,6 11,6 7 4 11 6 S 1013,5 15 0,0
14.10.2019 07:00:00 12,2 11,9 11,8 7 4 11 6 SSW 1013,2 17 0,0
14.10.2019 06:00:00 12,5 11,8 12,2 7 4 14 8 SW 1013,0 18 0,0
14.10.2019 05:00:00 12,9 11,8 12,5 14 8 22 12 SW 1012,3 19 0,0
14.10.2019 04:00:00 13,0 12,0 12,6 14 8 18 10 SW 1012,3 20 0,0
14.10.2019 03:00:00 12,9 12,2 12,3 11 6 25 14 WSW 1011,8 18 0,0
14.10.2019 02:00:00 13,9 12,6 13,4 18 10 32 18 WSW 1010,8 22 0,0
14.10.2019 01:00:00 14,7 13,0 14,1 22 12 36 19 WSW 1010,1 25 0,0
14.10.2019 00:00:00 15,2 13,0 14,6 22 12 36 19 WSW 1009,4 33 0,0
13.10.2019 23:00:00 15,6 13,5 15,1 25 14 40 21 SW 1008,2 45 0,0
13.10.2019 22:00:00 16,7 15,6 16,2 22 12 43 23 WSW 1007,6 27 0,2
13.10.2019 21:00:00 17,2 16,4 16,7 29 16 40 21 SW 1006,5 16 2,8
13.10.2019 20:00:00 17,2 16,3 17,1 36 19 61 33 WSW 1006,2 4,7 3,2
13.10.2019 19:00:00 19,4 16,2 18,4 18 10 32 18 S 1004,8 40 0,0
13.10.2019 18:00:00 19,7 16,4 18,8 22 12 29 16 S 1004,8 39 0,0
13.10.2019 17:00:00 19,7 16,6 19,0 18 10 36 19 S 1004,8 41 0,0
13.10.2019 16:00:00 20,2 16,9 19,6 18 10 32 18 S 1004,7 38 0,0
13.10.2019 15:00:00 20,2 17,2 20,0 18 10 32 18 S 1005,1 30 0,0
13.10.2019 14:00:00 19,7 17,2 20,3 18 10 29 16 S 1006,3 30 0,0
13.10.2019 13:00:00 17,9 17,0 17,7 11 6 22 12 S 1006,9 19 0,0
13.10.2019 12:00:00 17,3 16,1 17,1 18 10 25 14 S 1007,4 17 0,0
13.10.2019 11:00:00 15,8 15,4 15,6 14 8 22 12 S 1007,6 11 1,2
13.10.2019 10:00:00 14,2 14,0 14,0 11 6 14 8 S 1007,7 8 0,0
13.10.2019 09:00:00 12,9 12,8 12,6 11 6 14 8 SSE 1007,8 5 0,0
13.10.2019 08:00:00 12,1 12,0 11,8 11 6 18 10 SSE 1008,1 4,1 0,0
13.10.2019 07:00:00 11,7 11,7 11,6 7 4 11 6 SE 1008,4 2,7 0,0
13.10.2019 06:00:00 11,5 11,5 11,5 11 6 14 8 SE 1008,6 2,9 0,0
13.10.2019 05:00:00 11,3 11,1 11,3 7 4 14 8 E 1008,8 4,3 0,0
13.10.2019 04:00:00 11,2 11,1 11,2 11 6 18 10 E 1009,0 8 0,0
13.10.2019 03:00:00 11,2 11,0 11,2 11 6 14 8 E 1009,6 6 0,0
13.10.2019 02:00:00 11,0 11,0 11,1 7 4 11 6 E 1010,0 4,7 0,3
13.10.2019 01:00:00 11,0 11,0 11,0 4 2 11 6 E 1010,8 3,1 0,6
13.10.2019 00:00:00 11,0 11,0 11,1 4 2 7 4 ENE 1011,0 2,3 0,6
12.10.2019 23:00:00 11,0 11,0 11,0 0 0 7 4 N 1010,8 2,7 0,2
12.10.2019 22:00:00 10,9 10,9 10,9 4 2 11 6 SSE 1010,8 4,6 0,3
12.10.2019 21:00:00 10,9 10,9 11,0 7 4 11 6 SSE 1010,3 6 0,3
12.10.2019 20:00:00 11,0 11,0 11,1 4 2 7 4 S 1010,4 4,0 0,6
12.10.2019 19:00:00 11,1 11,0 11,2 4 2 11 6 SSE 1010,3 4,0 0,5
12.10.2019 18:00:00 11,3 11,0 11,4 7 4 11 6 SSW 1010,3 3,4 0,9
12.10.2019 17:00:00 11,7 11,4 11,8 7 4 14 8 SW 1010,5 3,7 0,5
12.10.2019 16:00:00 12,1 11,2 12,3 11 6 14 8 WSW 1010,4 4,5 0,1
12.10.2019 15:00:00 12,8 10,9 12,8 7 4 22 12 WSW 1010,2 44 0,0
12.10.2019 14:00:00 12,7 11,4 12,8 11 6 32 18 WSW 1009,7 42 0,1
12.10.2019 13:00:00 12,7 12,2 13,2 14 8 25 14 W 1009,4 3,6 0,0
12.10.2019 12:00:00 12,6 12,3 13,0 14 8 22 12 WSW 1009,0 6 0,1
12.10.2019 11:00:00 12,3 12,3 12,3 11 6 22 12 W 1008,6 4,2 0,4
12.10.2019 10:00:00 11,7 11,5 11,9 14 8 22 12 WSW 1007,8 5 0,2
12.10.2019 09:00:00 11,5 11,5 11,6 11 6 18 10 WSW 1007,2 3,9 0,3
12.10.2019 08:00:00 11,3 11,3 11,4 11 6 14 8 SW 1006,6 2,6 0,2
12.10.2019 07:00:00 11,2 11,2 11,3 7 4 14 8 WSW 1006,4 3,7 0,6
12.10.2019 06:00:00 11,5 11,4 11,5 11 6 22 12 W 1006,3 3,4 0,7
12.10.2019 05:00:00 11,6 11,6 11,6 7 4 25 14 W 1006,1 4,2 0,7
12.10.2019 04:00:00 12,0 11,5 12,0 18 10 47 25 WNW 1005,9 5 1,6
12.10.2019 03:00:00 15,7 12,9 14,8 29 16 47 25 SW 1005,3 24 0,1
12.10.2019 02:00:00 15,3 13,3 14,4 25 14 40 21 SW 1005,3 29 0,2
12.10.2019 01:00:00 15,2 13,4 14,5 22 12 50 27 SW 1005,5 48 0,2
12.10.2019 00:00:00 15,9 13,0 15,3 36 19 58 31 SW 1005,6 26 0,0
11.10.2019 23:00:00 15,7 12,8 15,1 32 18 47 25 SW 1005,5 50 0,0
11.10.2019 22:00:00 15,2 12,8 14,8 32 18 50 27 SW 1005,9 19 0,0
11.10.2019 21:00:00 14,7 12,8 14,2 32 18 50 27 SW 1005,7 10 0,0
11.10.2019 20:00:00 14,1 12,9 13,5 29 16 47 25 SSW 1006,1 12 0,1
11.10.2019 19:00:00 13,6 13,1 13,3 32 18 47 25 SSW 1006,5 20 0,8
11.10.2019 18:00:00 13,6 13,0 13,4 29 16 43 23 SSW 1006,8 5 0,9
11.10.2019 17:00:00 13,8 13,0 13,6 29 16 47 25 SSW 1007,1 11 1,1
11.10.2019 16:00:00 14,2 12,6 13,9 32 18 47 25 SSW 1007,7 18 0,2
11.10.2019 15:00:00 14,4 12,7 14,0 29 16 50 27 SSW 1008,2 13 0,3
11.10.2019 14:00:00 14,4 12,8 14,1 32 18 50 27 SSW 1008,6 29 0,2
11.10.2019 13:00:00 14,3 12,8 14,1 32 18 50 27 SSW 1008,9 17 0,2
11.10.2019 12:00:00 13,7 12,5 13,4 29 16 43 23 SSW 1009,1 14 0,2
11.10.2019 11:00:00 13,4 12,0 13,1 29 16 43 23 SSW 1009,3 14 0,1
11.10.2019 10:00:00 13,4 11,6 13,2 25 14 40 21 SSW 1009,4 24 0,0
11.10.2019 09:00:00 13,2 11,3 12,8 25 14 40 21 SSW 1009,2 19 0,0
11.10.2019 08:00:00 13,0 11,0 12,4 22 12 40 21 SW 1009,2 31 0,0
11.10.2019 07:00:00 12,4 11,1 11,8 22 12 40 21 SW 1009,5 26 1,3
11.10.2019 06:00:00 12,5 11,1 12,1 29 16 47 25 SW 1009,5 12 0,4
11.10.2019 05:00:00 12,4 10,5 11,8 29 16 43 23 SSW 1009,5 17 0,3
11.10.2019 04:00:00 12,9 9,7 12,2 29 16 47 25 SSW 1009,9 22 0,0
11.10.2019 03:00:00 13,0 9,7 12,5 25 14 47 25 SSW 1010,6 23 0,0
11.10.2019 02:00:00 12,8 9,8 12,3 25 14 40 21 SW 1010,8 21 0,0
11.10.2019 01:00:00 12,3 9,5 11,8 25 14 40 21 SSW 1011,4 22 0,0
11.10.2019 00:00:00 12,4 9,3 11,9 25 14 43 23 SW 1011,7 23 0,0
10.10.2019 23:00:00 12,2 9,4 11,7 25 14 32 18 SSW 1011,8 19 0,0
10.10.2019 22:00:00 11,6 9,1 10,9 18 10 29 16 SSW 1012,2 24 0,0
10.10.2019 21:00:00 11,4 8,9 10,7 14 8 22 12 SSW 1012,4 23 0,0
10.10.2019 20:00:00 11,4 8,8 10,6 18 10 29 16 SW 1012,4 25 0,0
10.10.2019 19:00:00 12,3 9,4 11,8 11 6 29 16 SW 1012,0 28 0,0
10.10.2019 18:00:00 13,1 9,2 12,8 22 12 43 23 WSW 1011,6 22 0,0
10.10.2019 17:00:00 13,7 8,7 13,5 29 16 47 25 WSW 1011,1 33 0,0
10.10.2019 16:00:00 13,9 8,6 13,8 29 16 50 27 WSW 1010,9 36 0,0
10.10.2019 15:00:00 14,2 10,0 14,6 25 14 36 19 WSW 1010,5 29 0,0
10.10.2019 14:00:00 11,1 8,4 10,9 25 14 50 27 WSW 1010,2 21 0,4
10.10.2019 13:00:00 13,6 9,4 13,9 25 14 50 27 WSW 1009,5 36 0,0
10.10.2019 12:00:00 13,1 9,5 13,3 25 14 43 23 WSW 1009,1 33 0,0
10.10.2019 11:00:00 12,6 9,9 13,1 25 14 36 19 WSW 1008,6 29 0,0
10.10.2019 10:00:00 10,8 9,9 10,7 18 10 32 18 SW 1008,0 16 0,0
10.10.2019 09:00:00 9,3 8,8 9,1 14 8 25 14 SSW 1007,2 10 0,0
10.10.2019 08:00:00 8,6 8,3 8,1 14 8 25 14 SW 1006,5 8 0,0
10.10.2019 07:00:00 9,2 8,8 8,9 18 10 32 18 SW 1006,0 8 0,0
10.10.2019 06:00:00 8,7 8,2 8,3 18 10 29 16 SW 1005,6 12 0,1
10.10.2019 05:00:00 8,8 8,1 8,3 18 10 25 14 SW 1005,3 21 0,0

tt = temperature
td = dewpoint
tt 5cm = temperature 5cm
ff = wind speed
fx = gusts
dd = wind direction
ppp = reduced air pressure
vv = visibility
rr = precipitation

Next stations